Location: 22
(39.7117°N, 89.5929°W)
Time: 18:22:57
(UTC-05:00)

Vanguard 3 - Pass Details

Date: 07 February 2023
Orbit: 508 x 3249 km, 33.4° (Epoch: 30 March)

Event Time Altitude Azimuth Distance (km) Brightness Sun altitude
Rises 00:27:16 0° 277° (W) 5,937 11.6 -65.4°
Enters shadow 00:27:31 - 277° (W) 5,896 11.5 -65.4°
Reaches altitude 10° 00:31:36 10° 267° (W) 5,284 - -65.3°
Maximum altitude 00:44:32 29° 216° (SW) 4,608 - -64.7°
Drops below altitude 10° 00:59:41 10° 166° (SSE) 6,140 - -63.6°
Sets 01:05:24 0° 156° (SSE) 7,015 - -63.0°
